TimeCST,TemperatureF,Dew PointF,Humidity,Sea Level PressureIn,VisibilityMPH,Wind Direction,Wind SpeedMPH,Gust SpeedMPH,PrecipitationIn,Events,Conditions,WindDirDegrees,DateUTC
12:15 AM,21.2,1.4,42,30.05,10.0,West,5.8,-,N/A,,Clear,270,2012-02-13 06:15:00
12:35 AM,19.4,1.4,46,30.05,10.0,West,6.9,-,N/A,,Clear,270,2012-02-13 06:35:00
12:55 AM,19.4,1.4,46,30.05,10.0,West,4.6,-,N/A,,Clear,270,2012-02-13 06:55:00
1:15 AM,19.4,1.4,46,30.05,10.0,West,3.5,-,N/A,,Clear,270,2012-02-13 07:15:00
1:35 AM,19.4,1.4,46,30.05,10.0,WSW,4.6,-,N/A,,Clear,250,2012-02-13 07:35:00
1:55 AM,17.6,1.4,49,30.05,10.0,West,4.6,-,N/A,,Clear,260,2012-02-13 07:55:00
2:15 AM,17.6,1.4,49,30.05,10.0,WSW,5.8,-,N/A,,Clear,250,2012-02-13 08:15:00
2:35 AM,17.6,1.4,49,30.04,10.0,West,4.6,-,N/A,,Clear,260,2012-02-13 08:35:00
2:55 AM,15.8,1.4,53,30.03,10.0,West,4.6,-,N/A,,Clear,260,2012-02-13 08:55:00
3:15 AM,15.8,-0.4,49,30.03,10.0,West,6.9,-,N/A,,Clear,260,2012-02-13 09:15:00
3:35 AM,15.8,1.4,53,30.03,10.0,West,4.6,-,N/A,,Clear,260,2012-02-13 09:35:00
3:55 AM,15.8,1.4,53,30.03,10.0,West,4.6,-,N/A,,Clear,260,2012-02-13 09:55:00
4:15 AM,15.8,1.4,53,30.03,10.0,WSW,5.8,-,N/A,,Clear,250,2012-02-13 10:15:00
4:35 AM,15.8,1.4,53,30.03,10.0,West,5.8,-,N/A,,Clear,260,2012-02-13 10:35:00
4:55 AM,14.0,-0.4,53,30.03,10.0,WSW,5.8,-,N/A,,Clear,250,2012-02-13 10:55:00
5:15 AM,14.0,1.4,57,30.02,10.0,West,5.8,-,N/A,,Clear,260,2012-02-13 11:15:00
5:35 AM,14.0,-0.4,53,30.02,10.0,West,5.8,-,N/A,,Clear,260,2012-02-13 11:35:00
5:55 AM,12.2,1.4,62,30.02,10.0,WSW,4.6,-,N/A,,Clear,250,2012-02-13 11:55:00
6:15 AM,12.2,1.4,62,30.01,10.0,WSW,4.6,-,N/A,,Clear,250,2012-02-13 12:15:00
6:35 AM,12.2,1.4,62,30.02,10.0,WSW,5.8,-,N/A,,Clear,250,2012-02-13 12:35:00
6:55 AM,12.2,-0.4,57,30.02,10.0,WSW,5.8,-,N/A,,Clear,250,2012-02-13 12:55:00
7:15 AM,12.2,1.4,62,30.02,10.0,West,5.8,-,N/A,,Clear,260,2012-02-13 13:15:00
7:35 AM,12.2,1.4,62,30.02,10.0,West,5.8,-,N/A,,Clear,260,2012-02-13 13:35:00
7:55 AM,14.0,1.4,57,30.02,10.0,WSW,5.8,-,N/A,,Clear,250,2012-02-13 13:55:00
8:15 AM,15.8,3.2,58,30.02,10.0,West,5.8,-,N/A,,Clear,260,2012-02-13 14:15:00
8:35 AM,17.6,1.4,49,30.02,10.0,West,5.8,-,N/A,,Clear,260,2012-02-13 14:35:00
8:55 AM,19.4,3.2,49,30.02,10.0,West,5.8,-,N/A,,Clear,260,2012-02-13 14:55:00
9:15 AM,19.4,3.2,49,30.02,10.0,SW,9.2,-,N/A,,Clear,230,2012-02-13 15:15:00
9:35 AM,21.2,3.2,46,30.02,10.0,West,8.1,-,N/A,,Clear,270,2012-02-13 15:35:00
9:55 AM,23.0,3.2,43,30.01,10.0,West,9.2,-,N/A,,Clear,270,2012-02-13 15:55:00
10:15 AM,24.8,5.0,43,30.00,10.0,West,8.1,-,N/A,,Clear,260,2012-02-13 16:15:00
10:35 AM,26.6,6.8,43,30.00,10.0,West,5.8,-,N/A,,Clear,260,2012-02-13 16:35:00
10:55 AM,28.4,5.0,37,29.99,10.0,WSW,9.2,-,N/A,,Clear,240,2012-02-13 16:55:00
11:15 AM,28.4,6.8,40,29.98,10.0,WSW,9.2,-,N/A,,Clear,240,2012-02-13 17:15:00
11:35 AM,28.4,6.8,40,29.97,10.0,SW,9.2,-,N/A,,Mostly Cloudy,230,2012-02-13 17:35:00
11:55 AM,28.4,6.8,40,29.96,10.0,SSW,8.1,-,N/A,,Overcast,200,2012-02-13 17:55:00
12:15 PM,28.4,10.4,47,29.95,10.0,SW,8.1,-,N/A,,Overcast,230,2012-02-13 18:15:00
12:35 PM,28.4,10.4,47,29.94,10.0,South,9.2,-,N/A,,Overcast,190,2012-02-13 18:35:00
12:55 PM,26.6,10.4,51,29.93,10.0,SW,11.5,-,N/A,,Overcast,220,2012-02-13 18:55:00
1:15 PM,26.6,10.4,51,29.92,10.0,SSW,9.2,-,N/A,,Overcast,210,2012-02-13 19:15:00
1:35 PM,28.4,12.2,51,29.91,10.0,SW,12.7,-,N/A,,Overcast,220,2012-02-13 19:35:00
1:55 PM,28.4,10.4,47,29.91,10.0,SSW,9.2,-,N/A,,Overcast,210,2012-02-13 19:55:00
2:15 PM,28.4,10.4,47,29.90,10.0,SW,9.2,-,N/A,,Overcast,230,2012-02-13 20:15:00
2:35 PM,30.2,10.4,44,29.89,10.0,SW,10.4,-,N/A,,Overcast,220,2012-02-13 20:35:00
2:55 PM,30.2,12.2,47,29.89,10.0,SSW,9.2,-,N/A,,Overcast,210,2012-02-13 20:55:00
3:15 PM,30.2,12.2,47,29.88,10.0,SW,9.2,-,N/A,,Overcast,220,2012-02-13 21:15:00
3:35 PM,30.2,14.0,51,29.88,10.0,SW,6.9,-,N/A,,Overcast,230,2012-02-13 21:35:00
3:55 PM,30.2,14.0,51,29.87,10.0,WSW,6.9,-,N/A,,Overcast,240,2012-02-13 21:55:00
4:15 PM,30.2,12.2,47,29.86,10.0,SW,9.2,-,N/A,,Overcast,220,2012-02-13 22:15:00
4:35 PM,30.2,14.0,51,29.86,10.0,SW,8.1,-,N/A,,Mostly Cloudy,230,2012-02-13 22:35:00
4:55 PM,30.2,14.0,51,29.86,10.0,WSW,5.8,-,N/A,,Overcast,240,2012-02-13 22:55:00
5:15 PM,30.2,15.8,55,29.86,10.0,SW,8.1,-,N/A,,Mostly Cloudy,230,2012-02-13 23:15:00
5:35 PM,30.2,15.8,55,29.85,10.0,SW,9.2,-,N/A,,Overcast,230,2012-02-13 23:35:00
5:55 PM,30.2,17.6,60,29.86,10.0,SW,6.9,-,N/A,,Overcast,220,2012-02-13 23:55:00
6:15 PM,28.4,19.4,69,29.86,10.0,SW,9.2,-,N/A,,Overcast,220,2012-02-14 00:15:00
6:35 PM,30.2,19.4,64,29.85,10.0,SW,8.1,-,N/A,,Overcast,230,2012-02-14 00:35:00
6:55 PM,28.4,19.4,69,29.85,10.0,SW,6.9,-,N/A,,Overcast,220,2012-02-14 00:55:00
7:15 PM,28.4,21.2,74,29.84,10.0,SW,8.1,-,N/A,,Overcast,220,2012-02-14 01:15:00
7:35 PM,28.4,23.0,80,29.84,10.0,SW,9.2,-,N/A,,Overcast,230,2012-02-14 01:35:00
7:55 PM,28.4,23.0,80,29.84,10.0,SW,8.1,-,N/A,,Overcast,230,2012-02-14 01:55:00
8:15 PM,28.4,24.8,86,29.83,5.0,SW,10.4,-,N/A,,Overcast,230,2012-02-14 02:15:00
8:35 PM,28.4,24.8,86,29.83,3.0,SSW,8.1,-,N/A,,Overcast,210,2012-02-14 02:35:00
8:55 PM,28.4,26.6,93,29.83,5.0,SW,10.4,-,N/A,,Overcast,220,2012-02-14 02:55:00
9:15 PM,28.4,24.8,86,29.83,5.0,SW,9.2,-,N/A,,Mostly Cloudy,230,2012-02-14 03:15:00
9:35 PM,28.4,24.8,86,29.83,4.0,SW,9.2,-,N/A,,Overcast,220,2012-02-14 03:35:00
9:55 PM,28.4,26.6,93,29.83,2.0,SW,9.2,-,N/A,,Overcast,230,2012-02-14 03:55:00
10:15 PM,28.4,26.6,93,29.82,2.5,SW,6.9,-,N/A,,Overcast,220,2012-02-14 04:15:00
10:35 PM,28.4,26.6,93,29.82,4.0,SW,6.9,-,N/A,,Mostly Cloudy,220,2012-02-14 04:35:00
10:55 PM,26.6,26.6,100,29.81,3.0,SSW,5.8,-,N/A,,Overcast,210,2012-02-14 04:55:00
11:15 PM,28.4,26.6,93,29.81,3.0,SSW,9.2,-,N/A,,Overcast,210,2012-02-14 05:15:00
11:35 PM,28.4,26.6,93,29.81,2.0,SSW,4.6,-,N/A,,Overcast,200,2012-02-14 05:35:00
11:55 PM,28.4,26.6,93,29.80,4.0,SSW,5.8,-,N/A,,Overcast,210,2012-02-14 05:55:00